Location: Detroit
(42.3310°N, 83.0460°W)
Time: 00:37:11
(UTC-04:00)

A-11 Canister half - Pass Details

Date: 08 February 2023
Orbit: 1526 x 1682 km, 47.3° (Epoch: 20 March)

Event Time Altitude Azimuth Distance (km) Brightness Sun altitude
Rises 10:09:46 0° 294° (WNW) 4,688 11.0 22.4°
Reaches altitude 10° 10:12:47 10° 294° (WNW) 3,713 10.6 22.7°
Maximum altitude 10:22:12 85° 208° (SSW) 1,573 9.6 23.8°
Drops below altitude 10° 10:31:52 10° 121° (ESE) 3,810 12.4 24.9°
Sets 10:35:00 0° 121° (ESE) 4,815 12.7 25.3°
